ELECTRON KICK STAGE R/B, 54228

Orbit data source: Space-Track

ELECTRON KICK STAGE R/B, 54228 is space debris in SSO originally from a launch on Fri, 04 Nov 2022 UTC launched from the Rocket Lab Launch Complex (RLLC). Debris objects in space refer to the collection of defunct objects orbiting the Earth. Examples of debris include non-operational satellites, rocket bodies, and fragments generated from explosions, collisions, or faulty payload assembly.

Loading next visibility...
Identifier
54228, 2022-147B
Orbit
SSO
Country
Flag of USUS
Related business
Manufacturer
Rocket Lab
Mission
Spacecraft
Bus & Motor
KICK STAGE, CURIE
Mass
~40 kg wet, ~40 kg dry
Launch date (UTC)
2022-11-04 (4 years ago)
Launch vehicle
Unknown
Launch site
Rocket Lab Launch Complex (RLLC)
Object type
Payload
Rocket body
Debris
Shape & HBR
Trunc Cone, 0.7 m
Radar Cross Section
0.760 m², Medium (>0.1 m² and < 1m²)

Expand to show TLE details & history
Last TLE update: 2 days ago

TLE from 2 days ago
0 ELECTRON KICK STAGE R/B
1 54228U 22147B   26171.02649552  .00017072  00000-0  53825-3 0  9990
2 54228  97.6322 190.2062 0008971 113.4400 246.7786 15.32919698199529
Epoch: 2026-06-20T00:38Z
TLE epoch observation values (Epoch: 2026-06-20T00:38:09.212Z)
Latitude
-0°
Longitude
-87.57921°
Altitude
472.634 km
Speed
7.628 km/s
True Right ascension
12h 40m 49s
True Declination
0° 00' 00"
Sunlit
Object was in daylight at epoch
Visualization orbit readout
Latitude
Unknown
Longitude
Unknown
Altitude
Unknown
Speed
Unknown
Apparent Right ascension
Unknown
Apparent Declination
Unknown
Sunlit
N/A
Visualization observer readout
Local Sidereal Time
23:26:57
Azimuth
Unknown
Elevation
Unknown
Doppler factor
Unknown
Orbital elements
Apogee altitude
470.203 km
Perigee altitude
457.927 km
Semi-major axis
6,842.202 km
Eccentricity
0.0009
Inclination
97.6322°
RAAN
190.2062°
Arg. of periapsis
113.44°
True anomaly
246.68417°
Mean anomaly
246.7786°
Eccentric anomaly
246.73138°
Mean motion
3.83486 °/min
Orbital period
93.88 mins
BSTAR
0.00053825
Loading maneuver chart data...
Computing Atmospheric mass density...
Loading historical data...
Loading historical data...
Loading historical data...
Loading historical data...
Loading historical data...
Loading historical data...
Loading historical data...
Other satellites on launch #147 in the year 2022 (2022-11-04 UTC)

Documentation

Showing up to 5 results
|